Regional Weather Roundup
Issued by NWS Mt. Holly, NJ

Home | Current Version | Previous Version | Text Only | Print | Product List | Glossary On
Versions: 1 2 3 4 5 6 7 8 9 10 11 12 13 14 15 16 17 18 19 20 21 22 23 24 25 26 27 28 29 30 31 32 33 34 35 36 37 38 39 40 41 42 43 44 45 46 47 48 49 50
982
ASUS41 KPHI 070112
RWRPHI

REGIONAL WEATHER ROUNDUP
NATIONAL WEATHER SERVICE MOUNT HOLLY NJ
800 PM EST SAT FEB 06 2016

NOTE:  "FAIR" INDICATES FEW OR NO CLOUDS BELOW 12,000 FEET WITH NO
SIGNIFICANT WEATHER AND/OR OBSTRUCTIONS TO VISIBILITY.

 * = STATION DOES NOT REPORT PRECIPITATION (E.G. RAIN, SNOW, ETC.)
        OR FOG.

NJZ015>026-070200-
SOUTHERN NEW JERSEY

CITY           SKY/WX    TMP DP  RH WIND       PRES   REMARKS
POMONA         PTCLDY    33  26  75 S5        30.32F WCI  29
WILDWOOD*      CLEAR     30  25  80 CALM      30.34S
MILLVILLE      PTCLDY    28  25  88 CALM      30.32S
WRIGHTSTOWN    PTCLDY    32  26  81 S2        30.28S
MOUNT HOLLY    PTCLDY    33  22  63 CALM      30.31S
TRENTON        PTCLDY    34  20  56 S3        30.29S

$$
NJZ001>014-070200-
NORTHERN NEW JERSEY

CITY           SKY/WX    TMP DP  RH WIND       PRES   REMARKS
SUSSEX         CLEAR     30  20  66 CALM      30.26R
ANDOVER*         N/A     28  21  75 CALM      30.26S
MORRISTOWN     PTCLDY    30  23  74 CALM      30.29S
NEWARK         PTCLDY    37  23  56 S5        30.30S WCI  33
TETERBORO      CLEAR     34  21  59 S3        30.28S
CALDWELL       CLEAR     32  21  64 CALM      30.29S
SOMERVILLE     CLEAR     28  21  75 CALM      30.28S
ALLAIRE*       CLEAR     36  18  48 SW6       30.30S WCI  31
TOMS RIVER*    CLEAR     28  25  86 CALM      30.32S

$$
PAZ043-044-047-054-055-060>062-066>071-070200-
EASTERN PENNSYLVANIA

CITY           SKY/WX    TMP DP  RH WIND       PRES   REMARKS
PHILADELPHIA   PTCLDY    37  24  59 S7        30.32R WCI  32
NORTH PHILA    PTCLDY    37  23  56 SW5       30.32S WCI  33
BLUE BELL*       N/A     32  25  74 CALM      30.28F
DOYLESTOWN     PTCLDY    32  19  58 CALM      30.28S
QUAKERTOWN*    CLEAR     28  21  74 CALM      30.28S
PERKASIE*      FAIR      32  19  59 SW3       30.28S
POTTSTOWN      CLOUDY    29  20  69 CALM      30.30S
LANCASTER      PTCLDY    33  21  61 CALM      30.28S
COATESVILLE    PTCLDY    32  21  64 CALM      30.29S
READING        CLEAR     34  19  54 S5        30.27S WCI  30
ALLENTOWN      CLEAR     28  19  69 SW5       30.27S WCI  23
MOUNT POCONO   CLEAR     29  18  63 SW7       30.19R WCI  22
HAZLETON       CLEAR     32  19  59 CALM      30.23S
LEHIGHTON      FAIR      28  23  80 CALM      30.27S
WILKES BARRE   PTCLDY    33  18  53 S5        30.21S WCI  29

$$
DEZALL-MDZ008-012-015-019-020-070200-
DELAWARE AND EASTERN MARYLAND

CITY           SKY/WX    TMP DP  RH WIND       PRES   REMARKS
WILMINGTON     CLOUDY    35  30  82 S6        30.32S WCI  30
DOVER          PTCLDY    33  29  86 S3        30.31S
GEORGETOWN     CLEAR     31  26  82 SW6       30.34S WCI  25
PATUXENT       CLEAR     34  24  67 S6        30.34R WCI  29
OCEAN CITY     CLEAR     31  25  78 CALM      30.35R
WALLOPS ISLAND FAIR      32  27  81 NW3       30.34S
SALISBURY      CLEAR     29  27  92 CALM      30.34S

$$
PAZ001-021-NYZ056-072-MDZ011-DCZ001-070200-
OTHER NEARBY LOCATIONS

CITY           SKY/WX    TMP DP  RH WIND       PRES   REMARKS
HARRISBURG     PTCLDY    38  20  48 S3        30.27S
STATE COLLEGE  CLEAR     36  18  48 SW5       30.20S WCI  32
WILLIAMSPORT   CLOUDY    38  18  44 CALM      30.21R
BINGHAMTON     MOCLDY    33  18  53 SW9       30.14S WCI  25
NEW YORK CITY  CLEAR     39  19  44 SW8       30.31S WCI  33
BALTIMORE      MOCLDY    35  22  58 S3        30.30S
WASHINGTON DC  MOCLDY    38  23  55 S8        30.32R WCI  32

$$




USA.gov is the U.S. government's official web portal to all federal, state and local government web resources and services.